Location: Podia
(1.5569°N, 32.3469°E)
Time: 08:38:03
(UTC+00:00)

ISS - Visible Passes

Search period start: 11 May 2021 00:00
Search period end: 21 May 2021 00:00
Orbit: 418 x 421 km, 51.6° (Epoch: 11 May)

Date Brightness Start Highest point End Pass type
(mag) Time Alt. Az. Time Alt. Az. Time Alt. Az.
11 May -1.9 16:41:45 10° S 16:43:08 16° SSE 16:43:08 16° SSE visible
12 May -1.9 17:30:19 10° WSW 17:33:19 31° NW 17:34:11 26° NNW visible
13 May -3.7 16:42:35 10° SW 16:45:56 78° NW 16:49:15 10° NNE visible
15 May -0.4 16:45:54 10° W 16:47:46 14° NW 16:49:37 10° NNW visible
16 May -0.5 02:44:30 10° NNE 02:46:43 17° NE 02:48:58 10° E visible
18 May -3.9 02:45:11 10° NW 02:48:32 86° WSW 02:51:55 10° SE visible
19 May -2.3 02:00:40 34° NNE 02:01:09 37° NE 02:04:18 10° ESE visible
20 May -1.6 02:51:53 12° SSW 02:51:53 12° SSW 02:52:26 10° SSW visible
